C/2019 T3 ( ATLAS )

Japanese version
Home page
Updated on August 15, 2020

---------------------------------------------------------------------

* Profile

Discovery Date October 6, 2019
Magnitude 18.9 mag
Discoverer Asteroid Terrestrial-Impact Last Alert System (ATLAS) search program

* Pictures

* Orbital Elements

Epoch 2021 Mar. 7.0 TT = JDT 2459280.5
T 2021 Mar. 2.70210 TT                                  Rudenko
q   5.9464880            (2000.0)            P               Q
z  +0.0002934      Peri.  112.27647     +0.60544938     +0.57396691
 +/-0.0000012      Node   139.52070     -0.19750689     -0.56273405
e   0.9982552      Incl.  121.86225     +0.77098773     -0.59488854
From 243 observations 2019 Jan. 17-2020 Aug. 3, mean residual 0".4.

* Magnitudes Graph

        m1 = -2.8 + 5 log d + 20.0 log r

---------------------------------------------------------------------

The orbital elements are published on M.P.E.C. 2020-P19.
The magnitudes graphs are made with Comet for Windows.

---------------------------------------------------------------------

Copyright(C) Seiichi Yoshida (comet@aerith.net). All rights reserved.